軌道要素
Epoch 2010 Mar. 25.0 TT = JDT 2455280.5
T 2010 Mar. 5.12203 TT MPC
q 3.6590615 (2000.0) P Q
n 0.05700202 Peri. 120.06415 -0.08025914 -0.83651123
a 6.6866594 Node 319.83397 +0.33605205 +0.48924966
e 0.4527818 Incl. 57.17879 +0.93841755 -0.24674627
P 17.3
From 55 observations 2010 Feb. 25-2011 Apr. 29, mean residual 0".6.
|